CAPE
0 0 0 0 0 0 0 0 0 0 0 0 0 0 0 0 0 0 0 0 0 0 0 0 0 0 0 0 0 0 0 0 7 9 4 0 0 0 0 0 0 0 0 0 0
0 0 0 0 0 0 0 0 0 0 0 0 0 0 0 0 0 0 0 0 0 0 0 0 11 14 1 0 0 0 0 0 9 0 0 0 0 0 0 0 0 0 0 0 0
0 0 0 0 0 0 0 0 0 0 0 0 0 0 0 0 0 0 0 0 0 0 0 0 3 8 1 0 0 0 0 0 0 0 0 0 0 0 0 0 0 0 0 0 0
0 0 0 0 0 0 0 0 0 0 0 0 0 0 0 0 0 0 0 0 0 0 0 0 0 0 0 0 0 1 0 4 1 0 0 0 0 0 0 0 0 0 0 0 0
0 0 0 0 0 0 0 0 0 0 0 0 0 0 0 0 0 0 0 0 0 0 0 0 0 0 0 0 0 0 1 1 0 0 0 0 0 0 0 0 0 0 0 0 0
1 2 0 0 0 0 0 0 0 0 0 0 0 0 0 0 0 0 0 0 0 0 0 0 0 0 0 0 0 0 6 0 0 0 0 0 0 0 0 0 0 0 0 0 0
0 1 9 3 0 0 0 0 0 0 0 0 0 0 0 0 0 0 0 0 0 0 0 0 0 0 0 0 0 0 0 0 0 0 0 0 0 0 0 0 0 0 0 0 0
0 0 1 8 3 0 0 0 0 0 0 0 0 0 0 0 0 0 0 0 0 0 0 0 0 0 0 0 0 0 0 0 0 0 0 3 0 0 0 0 0 0 0 0 0
5 0 0 0 0 0 0 0 0 0 0 0 0 0 0 0 0 0 0 0 0 0 0 0 0 0 0 0 0 0 0 0 0 0 0 3 0 0 0 1 0 0 0 0 0
0 4 0 0 0 0 0 0 0 0 0 0 0 0 0 0 0 0 0 0 0 0 0 0 0 0 0 0 0 0 0 0 0 0 5 2 2 2 5 4 17 27 0 2 0
0 0 0 1 1 0 0 0 0 0 0 0 0 0 0 0 0 0 0 0 0 0 0 0 0 0 0 0 0 0 0 0 18 9 11 3 20 22 23 0 10 1 8 5 0
0 0 0 0 0 0 0 0 0 0 0 0 0 0 0 0 0 0 0 0 0 0 0 0 0 0 0 0 0 0 0 0 2 13 6 7 13 6 0 0 0 0 0 0 0
8 0 0 0 0 0 0 0 0 0 0 0 0 0 0 0 0 0 0 0 0 0 0 0 0 0 0 0 0 0 0 0 7 14 18 15 4 0 0 10 7 12 0 0 12
1 2 0 0 0 0 0 0 0 0 0 0 0 0 0 0 0 0 0 0 0 0 0 0 0 0 0 0 0 0 0 1 16 8 7 10 0 0 0 0 0 0 0 0 47
6 0 0 0 0 0 0 2 3 0 0 0 0 0 0 0 0 0 0 0 0 0 0 0 0 0 0 0 0 0 0 12 20 1 3 0 0 0 0 0 7 0 0 0 51
2 6 2 0 0 0 0 5 0 0 0 0 0 0 0 0 0 0 0 0 0 0 0 0 0 0 0 0 0 0 3 12 5 1 0 0 0 0 0 1 0 0 0 3 51
1 11 14 0 0 5 10 21 19 0 0 0 0 0 0 0 0 0 0 0 0 0 0 0 0 0 0 0 0 0 8 1 1 0 0 0 0 0 0 0 0 0 19 77 74
0 6 7 10 0 1 9 15 16 0 0 0 0 0 0 0 0 0 0 0 0 0 0 0 0 0 0 0 0 0 0 0 0 0 0 3 0 1 0 0 0 0 40 157 97
0 3 12 12 5 1 14 6 0 0 0 0 0 0 0 0 0 0 0 0 0 0 0 0 0 0 0 0 0 0 0 0 0 0 0 0 11 4 0 0 0 0 154 318 141
10 14 5 28 18 6 5 0 0 0 0 0 0 0 0 0 0 0 0 0 0 0 0 0 0 0 0 0 0 0 0 0 0 0 0 0 14 33 0 0 0 115 246 355 141
18 7 0 27 33 12 0 0 0 0 0 0 0 0 0 0 0 0 0 0 0 0 0 0 0 0 0 0 0 0 0 0 0 0 0 1 5 35 0 0 131 205 365 272 73
4 0 0 17 21 1 0 0 1 0 0 0 0 0 0 0 0 0 0 0 0 0 0 0 0 0 0 0 0 0 0 0 0 0 0 10 17 0 0 0 0 310 285 105 0
2 3 3 41 4 2 5 6 19 23 0 0 0 0 0 0 0 0 0 0 0 0 0 0 0 0 0 6 1 0 0 0 8 0 0 0 1 1 0 0 2 125 190 28 1
5 0 71 25 22 22 23 20 9 38 32 8 0 0 1 2 0 0 0 0 1 0 0 0 0 0 0 1 0 0 0 0 0 0 0 0 25 57 0 0 0 28 122 39 1
12 30 38 28 16 15 13 21 16 0 20 20 3 3 0 0 0 0 0 0 0 2 0 0 0 0 0 15 29 0 0 0 0 0 0 1 3 21 0 2 0 46 193 46 20
15 34 11 2 7 6 0 8 17 9 17 26 15 3 6 0 0 0 0 0 0 0 16 73 0 0 0 0 22 1 0 0 0 0 0 0 0 0 7 9 15 117 210 136 38
28 53 15 2 24 19 27 13 4 22 11 10 0 3 0 0 0 0 0 0 0 0 0 83 0 0 0 0 1 19 6 0 0 0 0 0 1 2 8 6 0 191 251 170 96
CIN
0 0 0 0 0 0 0 0 0 0 0 0 0 0 0 0 0 0 0 0 0 0 0 0 0 0 0 0 0 0 0 0 -36 -5 -13 -9 0 0 0 0 0 0 0 0 0
0 0 0 0 0 0 0 0 0 0 0 0 0 0 0 0 0 0 0 0 0 0 0 0 -219 -139 -85 0 0 0 0 0 -19 0 0 0 0 0 0 0 0 0 0 0 0
0 0 0 0 0 0 0 0 0 0 0 0 0 0 0 0 0 0 0 0 0 0 0 0 -178 -127 -95 0 0 0 0 0 -4 -0 0 0 0 0 0 0 0 0 0 0 0
0 0 0 0 0 0 0 0 0 0 0 0 0 0 0 0 0 0 0 0 0 0 0 0 0 0 0 0 0 -5 0 -2 -4 0 0 0 0 0 0 0 0 0 0 0 0
0 0 0 0 0 0 0 0 0 0 0 0 0 0 0 0 0 0 0 0 0 0 0 0 0 0 0 0 0 -1 -7 -6 0 0 0 0 0 0 0 0 0 0 0 0 0
-3 -9 0 0 0 0 0 0 0 0 0 0 0 0 0 0 0 0 0 0 0 0 0 0 0 0 0 0 0 0 -9 -1 0 0 0 0 0 0 0 0 0 0 0 0 0
0 -2 -4 -11 0 0 0 0 0 0 0 0 0 0 0 0 0 0 0 0 0 0 0 0 0 0 0 0 0 0 0 0 0 0 0 0 0 0 0 0 0 0 0 0 0
-1 0 -11 -6 -3 0 0 0 0 0 0 0 0 0 0 0 0 0 0 0 0 0 0 0 0 0 0 0 0 0 0 0 0 0 0 -6 0 0 0 0 0 0 0 0 0
-0 0 0 0 0 0 0 0 0 0 0 0 0 0 0 0 0 0 0 0 0 0 0 0 0 0 0 0 0 0 0 0 0 0 0 -7 0 0 0 -7 -1 0 0 0 0
0 -1 0 0 0 0 0 0 0 0 0 0 0 0 0 0 0 0 0 0 0 0 0 0 0 0 0 0 0 0 0 0 0 0 -15 -12 -6 -20 -7 -10 -17 -20 0 -7 0
0 0 0 -9 -10 0 0 0 0 0 0 0 0 0 0 0 0 0 0 0 0 0 0 0 0 0 0 0 0 0 0 -3 -3 -34 -82 -8 -13 -5 -3 0 -28 -0 -5 -4 -3
0 0 0 0 0 0 0 0 0 0 0 0 0 0 0 0 0 0 0 0 0 0 0 0 0 0 0 0 0 0 0 0 -2 -15 -13 -3 -3 -8 0 0 0 0 0 0 0
-0 0 0 0 0 0 0 0 0 0 0 0 0 0 0 0 0 0 0 0 0 0 0 0 0 0 0 0 0 0 0 0 -2 -6 -3 -2 -19 0 -2 -4 -4 -3 0 0 -75
-3 -0 0 0 0 0 -0 0 0 0 0 0 0 0 0 0 0 0 0 0 0 0 0 0 0 0 0 0 0 0 0 -1 -3 -5 -3 -4 0 0 0 0 -0 0 0 0 -97
-0 -1 0 0 0 0 0 -37 -2 0 0 0 0 0 0 0 0 0 0 0 0 0 0 0 0 0 0 0 0 0 -1 -4 -6 -4 -2 0 0 0 0 0 -26 0 0 -0 -97
-3 -1 -0 0 0 0 0 -12 -2 0 0 0 0 0 0 0 0 0 0 0 0 0 0 0 0 0 0 0 0 0 -5 -4 -4 -2 0 0 0 0 0 -10 0 0 0 -18 -71
-0 -0 -0 -0 0 -5 -8 -5 -1 0 0 0 0 0 0 0 0 0 0 0 0 0 0 0 0 0 0 0 -1 0 -3 -2 -1 0 0 0 0 0 -1 0 0 0 -6 -22 -66
0 -5 -7 -1 0 -5 -14 -2 -1 0 0 0 0 0 0 0 0 0 0 0 0 0 0 0 0 0 0 0 0 0 0 0 0 0 0 -8 0 -6 0 0 0 0 -1 -20 -63
0 -1 -1 -16 -1 -24 -1 -0 0 0 0 0 0 0 0 0 0 0 0 0 0 0 0 0 0 0 0 0 0 0 0 0 0 0 -1 0 -29 -16 0 0 0 0 -16 -33 -75
-0 -0 -1 -6 -4 -10 -6 -1 0 0 0 0 0 0 0 0 0 0 0 0 0 0 0 0 0 0 0 0 0 0 0 0 0 0 0 0 -3 -2 0 0 0 -12 -22 -40 -91
-0 -1 0 -5 -3 -1 -3 0 0 0 0 0 0 0 0 0 0 0 0 0 0 0 0 0 0 0 0 0 0 0 0 0 0 0 0 -2 -5 -26 0 0 -6 -15 -25 -66 -118
-0 -1 0 -1 -0 -0 -0 0 -1 -2 0 0 0 0 0 0 0 0 -0 0 0 0 0 0 0 0 0 0 0 0 0 0 0 0 0 -4 -25 -2 0 0 0 -10 -44 -94 -26
0 0 -24 -2 0 -0 -3 -2 -4 -7 -0 0 0 -0 0 0 0 0 0 0 0 0 0 0 0 0 0 -1 -4 0 0 0 -1 -0 -1 0 -9 -7 0 0 -51 -8 -37 -91 -44
-6 0 -0 -1 -10 -2 -1 -4 -4 -3 -7 -6 -1 -3 -1 -2 0 0 0 0 -2 0 0 0 0 0 0 -13 0 0 0 0 0 0 0 -19 -17 -13 0 0 0 -27 -30 -90 -74
-2 -1 -2 -0 -2 -0 -1 -2 -2 -1 -6 -8 -5 -6 0 -1 0 0 0 0 0 -41 0 0 0 0 0 -35 -5 0 0 0 0 0 0 -74 -39 -9 0 -26 -5 -11 -16 -67 -123
-0 -0 -4 -1 -1 -1 0 -8 -2 -5 -7 -5 -6 -4 -4 -4 0 0 0 0 0 0 -15 -12 0 0 0 0 -29 -31 0 0 0 0 0 0 0 -0 -6 -18 -2 -14 -7 -37 -92
-1 -1 -0 -39 -5 -1 -2 -2 -3 -7 -5 -4 0 -3 0 0 0 0 0 0 0 0 0 -14 0 0 0 0 -19 -19 -9 0 0 0 0 0 -76 -60 -5 -6 0 -8 -10 -22 -45
Wind_Speed
33 33 34 35 35 34 33 33 34 33 33 33 33 33 33 34 36 28 27 21 18 12 16 13 10 10 10 11 10 11 19 19 25 31 33 32 27 24 23 16 18 14 12 14 12
35 35 36 36 36 36 35 35 35 35 35 34 35 35 35 36 35 38 35 29 18 10 15 13 14 12 13 13 14 14 19 17 28 37 36 35 30 30 26 11 10 9 8 10 10
36 37 36 37 37 37 37 37 37 37 37 36 37 37 37 37 37 33 27 27 16 14 17 17 15 15 15 15 13 14 17 16 31 38 38 38 32 12 15 16 17 18 14 6 9
38 37 37 37 37 38 38 39 39 39 39 38 38 39 39 33 35 22 22 24 18 17 22 24 23 21 18 16 15 23 22 25 30 34 40 20 11 13 18 19 15 15 14 7 7
39 39 38 38 38 38 39 41 41 40 40 40 38 37 35 36 37 31 31 25 22 21 23 25 27 23 23 20 20 20 27 33 36 32 12 14 12 15 17 16 18 15 12 10 7
39 41 41 40 39 39 40 41 42 42 42 40 39 37 36 47 36 38 36 28 24 21 23 23 24 21 35 23 33 30 31 37 41 17 14 17 15 15 16 13 14 13 12 7 3
38 40 39 40 40 40 41 42 43 43 44 42 39 36 43 34 33 32 32 18 19 10 16 12 27 41 42 41 38 35 31 36 22 13 15 18 16 14 13 13 13 10 8 10 8
39 39 38 38 39 41 42 43 43 45 45 43 39 34 48 40 37 42 40 41 14 14 11 22 22 40 41 38 30 18 27 18 16 13 14 15 14 14 10 8 11 8 8 8 6
40 40 40 40 40 40 43 44 46 45 41 36 28 25 51 37 21 24 25 20 30 21 23 22 16 29 9 17 16 16 19 18 17 12 13 10 13 9 7 14 12 8 9 12 8
39 39 40 41 41 41 42 44 45 41 32 25 32 26 30 38 32 23 20 20 18 35 38 34 12 19 16 15 18 14 14 13 12 9 7 8 8 7 7 8 13 12 11 13 8
38 39 39 40 40 40 40 35 27 28 29 32 28 32 36 26 26 22 19 18 19 21 19 16 16 22 20 22 18 14 14 13 10 5 19 6 9 8 10 14 12 19 20 14 6
38 38 38 39 40 39 36 33 31 33 42 31 36 39 34 34 34 25 18 18 18 25 18 18 28 21 21 17 18 18 17 17 32 36 32 20 11 16 17 12 11 8 13 14 2
37 37 38 38 39 38 36 38 37 40 43 50 36 30 36 27 36 27 19 18 19 20 24 26 24 20 21 17 19 23 27 28 31 33 19 32 9 15 15 9 7 7 11 11 4
38 36 36 36 35 30 35 30 28 28 42 48 36 48 29 22 45 39 18 17 20 20 25 30 23 21 20 25 21 23 27 24 12 31 25 29 26 14 15 8 8 5 3 3 4
39 37 35 31 36 31 28 26 22 22 46 34 32 24 25 31 21 28 27 20 19 17 18 31 25 25 29 26 31 25 24 11 12 13 22 9 10 7 13 9 6 11 9 3 6
37 33 32 32 31 32 32 30 25 33 50 36 26 25 25 29 30 21 25 26 23 21 21 20 27 29 38 36 20 28 12 26 28 36 27 12 10 8 4 15 13 14 14 9 7
36 31 27 28 33 26 23 27 35 48 38 37 26 23 29 29 31 31 24 28 28 25 29 20 24 35 39 24 16 12 13 16 13 27 26 14 14 11 6 14 13 15 14 10 8
32 25 25 26 25 26 23 31 48 47 53 29 30 24 32 35 33 30 26 30 31 27 24 23 23 34 22 30 23 18 14 14 32 17 21 29 10 11 10 9 11 11 13 11 9
27 23 21 18 16 19 25 44 52 52 43 50 46 45 35 35 38 35 37 33 32 32 26 22 35 17 39 18 18 16 23 16 38 37 36 15 1 13 5 8 7 9 11 11 8
25 24 21 12 12 16 30 46 49 52 56 49 48 36 40 38 42 37 40 43 33 34 32 38 33 33 19 20 20 23 14 15 15 18 32 28 6 12 6 7 11 12 11 11 10
20 22 18 2 4 16 31 37 43 47 53 50 50 47 42 42 39 44 45 42 35 32 32 42 37 31 29 27 21 20 48 16 16 10 6 3 13 3 3 7 11 9 9 11 12
15 20 21 10 5 17 31 35 41 45 46 47 45 46 45 40 39 38 48 48 37 35 34 34 30 42 31 21 22 19 23 21 21 11 16 19 18 10 10 9 9 12 10 11 13
15 17 16 5 15 13 29 39 42 44 46 47 45 46 43 40 36 35 44 46 52 32 41 36 46 39 40 31 25 32 31 23 16 21 9 8 6 4 3 8 8 9 13 12 13
19 17 15 13 17 25 34 39 39 38 44 45 45 43 45 44 39 38 40 35 41 44 36 35 44 44 41 30 24 27 29 21 19 16 10 21 33 3 7 6 6 9 13 13 14
14 16 16 20 22 26 34 41 41 38 35 35 47 44 45 47 44 40 32 33 37 42 36 36 50 47 51 43 26 26 26 24 25 19 20 15 30 9 2 5 5 9 11 13 14
16 20 22 25 24 26 24 30 38 38 37 38 42 43 43 47 46 41 35 31 35 30 37 34 51 48 47 47 43 31 30 31 40 21 20 42 20 22 15 3 5 9 10 11 14
13 17 20 21 24 25 27 28 29 29 32 33 39 44 41 45 42 42 38 40 43 42 37 36 49 47 54 40 43 41 32 27 28 37 21 22 13 28 17 6 2 8 10 9 13
Wind_Direction
303 302 297 292 291 293 294 292 293 294 293 295 296 296 297 298 296 295 291 296 292 286 304 304 289 288 291 295 299 309 307 309 316 311 309 306 323 333 336 338 332 341 348 351 1
302 301 298 294 291 288 289 290 291 289 290 293 294 294 295 296 293 288 284 283 289 285 289 282 282 281 276 282 294 296 296 297 306 277 302 304 317 321 329 332 346 339 356 359 6
298 298 296 294 291 289 288 287 286 286 288 291 290 293 292 295 291 290 295 286 268 271 278 278 276 275 267 279 272 285 283 243 245 271 283 287 310 334 343 342 340 349 8 21 2
290 291 290 293 292 289 285 284 284 286 287 288 289 290 289 286 281 297 309 306 292 279 279 276 272 263 257 260 271 288 238 233 236 254 284 317 310 326 333 335 336 352 358 1 342
286 283 288 287 288 289 284 282 284 284 284 285 290 292 290 278 273 287 298 302 298 283 276 271 265 254 255 252 277 246 236 238 247 295 265 298 301 321 324 333 338 348 343 343 356
294 287 288 288 286 285 280 278 281 282 283 286 288 291 283 275 284 283 286 289 292 285 277 273 265 250 273 248 231 232 234 244 263 236 294 303 308 314 316 328 342 339 339 343 0
300 295 296 292 290 287 284 278 277 277 277 281 288 287 278 245 284 289 288 271 282 271 284 216 208 226 237 230 234 233 235 240 231 281 289 308 297 300 315 313 316 335 338 332 334
301 299 299 298 295 291 287 285 282 277 276 278 280 283 271 269 238 231 231 246 216 227 250 287 281 232 229 237 225 232 231 273 241 271 269 279 275 315 317 310 303 311 321 320 310
303 299 297 296 295 293 289 285 281 278 278 280 281 281 265 273 250 227 267 225 272 276 280 280 266 214 251 221 236 230 277 276 292 279 287 274 282 299 318 324 316 310 321 319 316
306 304 299 296 295 293 292 288 279 280 282 280 276 279 280 277 276 271 260 251 236 264 263 266 244 219 221 220 227 262 267 263 263 282 267 276 274 290 285 291 317 289 301 317 307
309 305 303 300 296 294 293 294 288 285 271 264 272 262 279 292 280 271 268 258 246 256 232 224 245 220 215 213 223 249 262 261 257 242 318 278 251 302 323 325 277 318 319 317 297
311 307 304 302 299 293 288 280 276 292 279 269 265 267 270 276 279 270 266 255 228 225 230 233 219 212 210 220 226 232 237 231 251 275 295 313 304 320 320 263 266 280 325 326 320
311 310 306 303 301 295 280 275 277 286 277 269 264 245 217 261 264 263 245 248 241 232 217 217 211 208 211 223 219 214 215 218 227 289 261 267 286 316 252 293 277 307 346 2 80
309 308 307 306 302 300 286 283 275 283 275 269 263 257 231 236 227 207 241 234 248 228 206 211 208 212 212 210 204 210 204 208 275 287 228 293 249 325 332 319 350 13 9 31 95
307 303 302 300 296 291 300 300 292 279 266 274 257 269 252 217 273 214 205 218 232 220 230 210 206 206 205 201 202 206 201 237 282 218 224 232 248 263 338 324 347 22 21 116 108
311 306 302 297 290 289 287 290 281 258 257 266 273 236 245 227 224 276 201 214 242 244 220 229 240 202 205 207 199 200 246 276 278 264 224 219 233 249 257 4 17 12 19 67 91
313 307 300 297 284 296 293 278 255 247 257 262 248 240 246 244 237 242 221 213 215 218 210 218 212 204 205 206 219 223 233 265 215 210 221 216 219 222 339 348 9 6 24 63 68
317 314 303 294 289 286 286 262 250 251 246 266 255 250 251 249 244 228 234 227 221 218 250 234 228 198 202 201 198 199 233 226 229 197 214 265 208 351 359 20 16 31 22 49 61
324 317 308 296 285 281 268 251 250 250 258 250 263 266 253 254 249 235 232 231 218 208 227 224 206 228 199 215 212 222 201 198 224 250 255 320 12 325 30 60 74 72 57 50 50
329 320 309 301 277 274 260 254 257 254 251 263 255 270 262 254 246 235 232 239 230 213 233 245 252 201 200 223 235 242 228 230 243 205 269 289 243 332 82 81 91 67 49 57 74
339 328 317 318 245 268 262 260 261 260 255 257 256 260 263 261 262 241 238 240 232 226 219 239 249 248 244 215 218 226 219 213 266 235 242 289 313 25 69 79 65 50 63 72 93
352 330 299 118 291 282 270 265 268 265 261 256 259 255 254 262 263 253 238 236 242 229 220 211 250 245 241 225 213 229 233 240 256 213 279 285 309 23 46 52 46 74 72 86 100
354 330 306 96 313 294 278 267 266 264 258 250 253 251 252 259 256 251 243 240 232 227 229 225 237 244 244 242 222 239 242 239 245 267 226 204 213 340 19 108 46 55 100 104 106
342 330 324 318 315 300 274 265 271 269 259 252 250 253 251 247 251 246 249 248 237 236 230 227 236 238 241 239 218 227 239 226 215 233 233 194 232 41 81 47 55 76 106 116 121
11 344 337 322 314 302 288 269 267 266 266 258 245 247 244 244 245 244 263 266 254 240 231 227 231 236 236 240 228 232 236 236 207 221 210 210 259 286 286 12 85 108 107 123 128
352 338 335 325 328 307 298 287 265 265 268 258 250 243 243 241 242 249 257 259 243 245 242 229 231 233 239 240 245 237 238 244 217 234 245 233 197 272 284 139 123 126 121 121 134
15 348 346 334 327 300 292 283 279 274 269 262 251 247 246 243 252 252 261 253 250 249 246 235 227 228 233 239 242 243 233 234 246 248 237 201 245 261 284 281 295 137 128 122 137